Weather Roundup
Issued by NWS Springfield, MO

Home | Current Version | Previous Version | Text Only | Print | Product List | Glossary On
Versions: 1 2 3 4 5 6 7 8 9 10 11 12 13 14 15 16 17 18 19 20 21 22 23 24 25 26 27 28 29 30 31 32 33 34 35 36 37 38 39 40 41 42 43 44 45 46 47 48 49 50
339
NZUS99 KSGF 261957
HRRSGF

HOURLY WEATHER
NATIONAL WEATHER SERVICE SPRINGFIELD MO
300 PM CDT MON JUN 26 2017

......SGF CWA......

CITY           SKY/WX    TMP DP  RH WIND       PRES   REMARKS
SPRINGFIELD    CLOUDY    73  61  65 S7        30.15F
WEST PLAINS    CLOUDY    75  61  61 SW3       30.17F
ROLLA          CLOUDY    72  56  57 N7        30.17F
BRANSON        PTSUNNY   81  61  50 CALM      30.17F

......SURROUNDING SGF CWA......

CITY           SKY/WX    TMP DP  RH WIND       PRES   REMARKS
CHANUTE        CLOUDY    83  59  44 W12       30.11F
PARSONS        PTSUNNY   85  63  47 S8        30.12F
COFFEYVILLE    MOSUNNY   87  63  44 W10G16    30.10F
EMPORIA        PTSUNNY   78  61  55 NE12      30.11F
HARRISON AR    PTSUNNY   78  61  55 S7        30.15F

......KANSAS AND MISSOURI......

CITY           SKY/WX    TMP DP  RH WIND       PRES   REMARKS
KANSAS CTY INT PTSUNNY   66  56  70 S12       30.15F
SEDALIA        HVY RAIN  58  58 100 CALM      30.23S VSB 1
ST JOSEPH      MOSUNNY   67  61  81 S9        30.16F
ST LOUIS       LGT RAIN  72  53  51 N12       30.19S
WICHITA        MOSUNNY   86  60  41 SW9       30.08F
TOPEKA         SUNNY     74  58  57 E14       30.14F
OLATHE         PTSUNNY   66  53  63 E13       30.17F

......TENNESSEE......

CITY           SKY/WX    TMP DP  RH WIND       PRES   REMARKS
MEMPHIS        NOT AVBL
NASHVILLE      PTSUNNY   81  53  37 NW7       30.14F

......ARKANSAS.......

CITY           SKY/WX    TMP DP  RH WIND       PRES   REMARKS
FAYETTEVILLE   SUNNY     82  54  37 S8        30.14F
FT SMITH       MOSUNNY   86  60  41 VRB7      30.10F
LITTLE ROCK    PTSUNNY   83  59  44 SE3       30.12F

......OKLAHOMA.......

CITY           SKY/WX    TMP DP  RH WIND       PRES   REMARKS
TULSA          MOSUNNY   87  57  35 VRB7      30.08F
PONCA CITY     PTSUNNY   87  57  35 S7        30.08F
MCALESTER      CLOUDY    85  60  42 S5        30.12F
OKLAHOMA CITY  MOSUNNY   84  56  38 SW6       30.11F

......IOWA............

CITY           SKY/WX    TMP DP  RH WIND       PRES   REMARKS
DES MOINES     NOT AVBL
QUAD CITIES    PTSUNNY   73  51  46 W22G29    30.09F

......ILLINOIS........

CITY           SKY/WX    TMP DP  RH WIND       PRES   REMARKS
QUINCY         NOT AVBL
CHICAGO        PTSUNNY   72  39  30 W23G33    30.04F




USA.gov is the U.S. government's official web portal to all federal, state and local government web resources and services.